Stations météo

réclame
Mon MeteoGroup
Putbus, Allemagne (10093): Température de l'air & dewpoint: 17.11.2017 12:00:00 - 23.11.2017 12:00:00 (CET)Putbus, Allemagne (10093): Température de l'air 5cm & Température de l'air -5cm: 17.11.2017 12:00:00 - 23.11.2017 12:00:00 (CET)Putbus, Allemagne (10093): Température de l'air -20cm & Température de l'air -100cm: 17.11.2017 12:00:00 - 23.11.2017 12:00:00 (CET)Putbus, Allemagne (10093): Vitesse du vent & gusts: 17.11.2017 12:00:00 - 23.11.2017 12:00:00 (CET)Putbus, Allemagne (10093): Direction du vent: 17.11.2017 12:00:00 - 23.11.2017 12:00:00 (CET)Putbus, Allemagne (10093): reduced air pressure: 17.11.2017 12:00:00 - 23.11.2017 12:00:00 (CET)Putbus, Allemagne (10093): visibility: 17.11.2017 12:00:00 - 23.11.2017 12:00:00 (CET)Putbus, Allemagne (10093): Ensoleillement: 17.11.2017 12:00:00 - 23.11.2017 12:00:00 (CET)Putbus, Allemagne (10093): Quantités de précipitations: 17.11.2017 12:00:00 - 23.11.2017 12:00:00 (CET)
Date & Time tt [°C] td [°C] tt 5cm [°C] tt -5cm [°C] tt -20cm [°C] tt -100cm [°C] ff [km/h] ff [knt] fx [km/h] fx [knt] dd ppp [hPa] vv [km] sd [min] rr [mm]
23.11.2017 12:00:00 7,6 4,5 7,5 5,7 5,2 8,5 18 10 35 19 S 1001,0 45 0 0,0
23.11.2017 11:00:00 7,1 3,9 6,8 5,0 5,1 8,5 19 10 30 16 S 1001,8 44 0 0,0
23.11.2017 10:00:00 6,2 3,9 5,7 4,3 5,1 8,5 20 11 34 18 S 1002,0 35 0 0,0
23.11.2017 09:00:00 5,9 3,5 5,3 3,7 5,1 8,5 17 9 31 17 S 1002,1 36 3 0,0
23.11.2017 08:00:00 5,3 3,4 4,2 3,3 5,2 8,5 16 9 31 17 S 1002,2 26 0 0,0
23.11.2017 07:00:00 5,3 3,5 4,3 3,3 5,4 8,5 17 9 29 15 S 1002,7 23 0 0,0
23.11.2017 06:00:00 5,1 3,5 3,9 3,4 5,5 8,5 16 9 29 16 S 1002,9 19 0 0,0
23.11.2017 05:00:00 5,2 3,9 4,0 3,7 5,7 8,5 18 10 32 17 S 1003,2 15 0 0,0
23.11.2017 04:00:00 5,5 4,2 4,3 3,9 5,9 8,5 23 12 36 19 S 1003,2 14 0 0,0
23.11.2017 03:00:00 5,8 4,4 4,5 4,2 6,1 8,5 18 10 31 17 S 1003,4 16 0 0,0
23.11.2017 02:00:00 6,0 4,7 4,9 4,6 6,3 8,5 18 10 30 16 S 1003,8 15 0 0,0
23.11.2017 01:00:00 6,2 5,1 5,0 5,0 6,4 8,5 18 10 31 17 S 1004,1 13 0 0,0
23.11.2017 00:00:00 6,7 5,5 5,7 5,4 6,6 8,5 19 10 33 18 S 1004,4 14 0 0,0
22.11.2017 23:00:00 7,3 6,0 6,1 5,8 6,8 8,5 19 11 32 17 S 1004,4 15 0 0,0
22.11.2017 22:00:00 7,5 6,5 6,4 6,4 6,8 8,5 16 9 30 16 S 1004,5 11 0 0,0
22.11.2017 21:00:00 8,3 7,3 7,2 7,2 6,8 8,6 15 8 31 17 S 1004,6 8 0 0,0
22.11.2017 20:00:00 9,6 8,5 9,3 8,0 6,7 8,6 19 10 33 18 SW 1005,1 8 0 0,0
22.11.2017 19:00:00 9,5 8,7 9,2 8,0 6,6 8,6 19 10 31 17 SW 1004,9 8 0 0,0
22.11.2017 18:00:00 9,4 8,7 9,1 7,9 6,5 8,6 17 9 33 18 SW 1004,6 10 0 0,0
22.11.2017 17:00:00 9,4 8,8 9,1 7,9 6,3 8,6 17 9 31 17 SW 1004,7 11 0 1,2
22.11.2017 16:00:00 9,5 9,0 9,1 7,8 6,2 8,6 18 10 31 17 SW 1004,3 3,4 0 0,5
22.11.2017 15:00:00 9,5 9,0 9,1 7,7 5,9 8,6 16 9 30 16 SSW 1004,3 5 0 0,3
22.11.2017 14:00:00 9,5 8,8 9,2 7,6 5,7 8,6 16 9 32 18 SW 1004,1 9 0 0,0
22.11.2017 13:00:00 9,2 8,6 8,9 7,2 5,5 8,6 16 8 26 14 SW 1003,9 8 0 0,0
22.11.2017 12:00:00 8,8 8,5 8,6 6,8 5,2 8,6 15 8 29 16 SW 1003,8 5 0 0,3
22.11.2017 11:00:00 8,4 8,2 8,3 6,3 5,0 8,6 15 8 28 15 SSW 1003,7 1,9 0 1,8
22.11.2017 10:00:00 7,1 7,0 7,0 5,5 4,9 8,6 12 6 22 12 SSW 1003,5 1,4 0 0,5
22.11.2017 09:00:00 6,1 5,9 6,1 4,9 4,8 8,6 12 6 21 11 S 1003,1 2,8 0 0,4
22.11.2017 08:00:00 5,4 5,4 5,3 4,6 4,7 8,6 9 5 20 11 S 1003,1 1,7 0 0,1
22.11.2017 07:00:00 4,9 4,7 4,9 4,3 4,7 8,6 12 6 24 13 S 1003,5 4,8 0 0,1
22.11.2017 06:00:00 4,4 4,2 4,3 4,2 4,7 8,6 12 6 27 15 SSE 1003,9 3,5 0 2,0
22.11.2017 05:00:00 4,1 3,9 4,0 4,1 4,7 8,6 17 9 30 16 SSE 1004,6 2,5 0 3,4
22.11.2017 04:00:00 3,9 3,5 3,9 4,0 4,7 8,7 15 8 32 17 SSE 1005,3 2,2 0 1,4
22.11.2017 03:00:00 3,8 3,2 3,6 4,0 4,7 8,7 16 9 33 18 SE 1006,0 2,4 0 0,1
22.11.2017 02:00:00 3,9 3,0 3,8 4,0 4,6 8,7 16 8 36 20 SE 1007,2 3,4 0 0,0
22.11.2017 01:00:00 3,9 3,0 3,9 3,9 4,6 8,7 13 7 29 16 SE 1007,9 6 0 0,0
22.11.2017 00:00:00 4,1 2,5 4,1 3,9 4,6 8,7 16 8 30 16 SE 1008,7 12 0 0,0
21.11.2017 23:00:00 4,1 2,5 4,0 3,9 4,6 8,7 10 6 23 12 SE 1009,3 16 0 0,0
21.11.2017 22:00:00 3,9 2,3 3,9 3,9 4,6 8,7 10 6 22 12 SSE 1009,7 14 0 0,0
21.11.2017 21:00:00 3,8 2,3 3,8 4,0 4,6 8,7 10 5 17 9 SE 1010,3 21 0 0,0
21.11.2017 20:00:00 3,7 2,4 3,7 4,0 4,6 8,7 8 4 16 8 SSE 1010,3 13 0 0,0
21.11.2017 19:00:00 3,6 2,6 3,6 4,0 4,7 8,7 5 3 17 9 SSE 1010,5 10 0 0,0
21.11.2017 18:00:00 3,9 2,8 3,8 4,0 4,7 8,7 6 3 13 7 SE 1010,4 9 0 0,0
21.11.2017 17:00:00 3,7 2,7 3,4 4,2 4,7 8,7 3 2 8 4 SE 1010,4 8 0 0,0
21.11.2017 16:00:00 3,7 2,7 3,1 4,5 4,6 8,8 4 2 7 4 SE 1010,2 10 0 0,0
21.11.2017 15:00:00 4,1 2,7 3,8 5,0 4,4 8,8 4 2 7 4 S 1010,3 10 0 0,0
21.11.2017 14:00:00 4,3 2,5 4,7 5,2 4,2 8,8 3 1 10 5 SSE 1010,4 14 0 0,0
21.11.2017 13:00:00 4,2 2,8 4,6 4,9 4,0 8,8 4 2 15 8 SSW 1010,6 12 0 0,0
21.11.2017 12:00:00 4,1 2,7 4,4 4,4 3,8 8,8 10 6 15 8 SSW 1010,9 12 0 0,0
21.11.2017 11:00:00 4,0 3,1 4,1 3,7 3,6 8,8 5 3 11 6 SSW 1011,1 8 0 0,0
21.11.2017 10:00:00 3,5 3,0 3,3 2,9 3,5 8,8 7 4 13 7 SSW 1010,8 6 0 0,0
21.11.2017 09:00:00 3,0 2,6 2,8 2,3 3,5 8,8 8 4 11 6 SSW 1010,5 6 0 0,0
21.11.2017 08:00:00 2,7 2,5 2,2 2,1 3,5 8,8 7 4 11 6 SW 1010,2 3,2 0 0,0
21.11.2017 07:00:00 2,6 2,4 1,8 2,0 3,5 8,8 4 2 8 4 SW 1010,0 4,4 0 0,0
21.11.2017 06:00:00 2,6 2,2 1,8 1,9 3,5 8,8 5 3 10 5 SSW 1010,1 4,1 0 0,0
21.11.2017 05:00:00 2,2 2,0 1,2 1,9 3,6 8,8 4 2 10 5 SW 1010,3 3,4 0 0,0
21.11.2017 04:00:00 2,4 2,2 1,8 1,9 3,6 8,8 9 5 14 7 WSW 1010,2 4,6 0 0,0
21.11.2017 03:00:00 2,4 2,1 1,8 1,9 3,7 8,9 8 4 14 8 WSW 1010,3 8 0 0,0
21.11.2017 02:00:00 2,3 1,8 1,7 1,9 3,7 8,9 11 6 16 8 WSW 1010,3 10 0 0,0
21.11.2017 01:00:00 2,4 1,8 1,7 2,0 3,8 8,9 9 5 14 8 SW 1010,7 25 0 0,0
21.11.2017 00:00:00 2,2 1,7 1,6 2,1 3,9 8,9 8 5 12 7 WSW 1010,8 33 0 0,0
20.11.2017 23:00:00 2,1 1,6 1,4 2,2 3,9 8,9 9 5 12 7 SW 1011,1 37 0 0,0
20.11.2017 22:00:00 2,4 1,8 1,8 2,5 4,0 8,9 9 5 11 6 SW 1011,2 37 0 0,0
20.11.2017 21:00:00 2,7 2,4 2,4 2,6 4,1 8,9 8 4 15 8 SW 1011,4 20 0 0,5
20.11.2017 20:00:00 2,5 2,0 1,4 2,5 4,1 8,9 7 4 12 7 S 1011,3 42 0 0,0
20.11.2017 19:00:00 3,0 2,6 2,5 3,2 4,1 8,9 6 4 9 5 SSW 1011,3 14 0 1,5
20.11.2017 18:00:00 2,8 2,4 2,7 3,2 4,1 8,9 0 0 18 10 N 1011,3 5 0 0,8
20.11.2017 17:00:00 3,2 2,6 3,0 3,4 4,1 8,9 5 3 16 8 WSW 1011,2 35 0 0,2
20.11.2017 16:00:00 3,5 2,1 3,1 3,5 4,0 8,9 12 7 24 13 NNW 1011,6 13 0 1,6
20.11.2017 15:00:00 3,6 2,4 3,2 3,5 3,9 9,0 18 10 29 15 W 1011,3 3,6 0 0,3
20.11.2017 14:00:00 4,2 1,3 3,1 3,6 3,8 9,0 23 12 37 20 WNW 1011,3 32 0 0,7
20.11.2017 13:00:00 4,2 2,3 3,7 3,5 3,6 9,0 18 10 34 19 WNW 1011,0 9 0 0,5
20.11.2017 12:00:00 3,3 2,2 3,2 3,5 3,4 9,0 18 10 32 17 W 1011,0 45 3 1,4
20.11.2017 11:00:00 5,0 3,0 5,3 3,0 3,2 9,0 10 6 16 8 WSW 1010,8 70 9 0,0
20.11.2017 10:00:00 3,6 2,4 3,7 1,3 3,2 9,0 13 7 16 9 WSW 1010,7 67 11 0,0
20.11.2017 09:00:00 1,9 1,1 1,8 0,7 3,3 9,0 14 8 18 10 WSW 1010,6 46 1 0,0
20.11.2017 08:00:00 0,9 -0,1 -0,1 0,7 3,4 9,0 14 7 19 10 WSW 1010,3 64 0 0,0
20.11.2017 07:00:00 1,1 -0,8 0,2 0,7 3,5 9,0 16 9 21 12 WSW 1010,1 70 0 0,0
20.11.2017 06:00:00 2,0 -1,0 -0,1 0,6 3,7 9,0 10 6 19 10 W 1009,8 70 0 0,0
20.11.2017 05:00:00 2,8 -0,8 0,7 1,1 3,8 9,0 12 7 30 16 WNW 1009,8 70 0 0,0
20.11.2017 04:00:00 3,3 -1,3 2,0 1,3 4,0 9,0 18 10 31 17 WNW 1009,7 70 0 0,0
20.11.2017 03:00:00 3,5 -1,0 2,4 1,6 4,1 9,0 19 10 29 16 WNW 1009,4 70 0 0,0
20.11.2017 02:00:00 3,4 -0,2 2,4 1,7 4,3 9,0 16 9 29 16 WNW 1009,2 70 0 0,0
20.11.2017 01:00:00 2,8 -1,3 1,1 1,5 4,5 9,1 13 7 34 18 WNW 1009,0 70 0 0,0
20.11.2017 00:00:00 3,1 -0,7 1,4 2,0 4,7 9,1 21 11 35 19 NW 1008,4 70 0 0,0
19.11.2017 23:00:00 3,4 -0,1 2,0 2,8 4,8 9,1 24 13 40 22 NW 1007,8 70 0 0,0
19.11.2017 22:00:00 3,9 1,4 3,4 3,5 4,8 9,1 21 12 51 27 NW 1006,8 70 0 0,8
19.11.2017 21:00:00 3,7 1,8 3,0 3,5 4,9 9,1 31 17 55 30 NNW 1005,3 4,9 0 0,9
19.11.2017 20:00:00 3,5 1,6 2,8 3,4 4,9 9,1 29 15 55 30 NW 1003,6 12 0 0,6
19.11.2017 19:00:00 3,7 1,1 2,8 3,4 5,0 9,1 37 20 67 36 NW 1002,5 43 0 0,0
19.11.2017 18:00:00 3,6 1,2 2,7 3,5 5,1 9,1 41 22 72 39 NW 1001,4 70 0 0,5
19.11.2017 17:00:00 4,2 0,4 2,8 3,7 5,2 9,1 37 20 62 33 WNW 1000,8 32 0 0,1
19.11.2017 16:00:00 4,9 -0,7 4,2 4,1 5,3 9,1 31 17 57 31 WNW 1000,6 63 0 0,0
19.11.2017 15:00:00 5,1 -0,2 4,9 4,6 5,3 9,1 32 17 56 30 WNW 1000,1 70 1 0,0
19.11.2017 14:00:00 5,4 0,7 5,5 5,1 5,2 9,1 30 16 50 27 WNW 999,5 70 14 0,0
19.11.2017 13:00:00 5,4 1,2 5,1 5,2 5,0 9,1 29 16 54 29 WNW 999,1 70 9 0,0
19.11.2017 12:00:00 5,9 2,5 5,7 5,0 4,9 9,1 28 15 55 30 WNW 998,4 66 15 0,2
19.11.2017 11:00:00 5,9 4,5 6,0 4,6 4,8 9,2 19 11 39 21 W 997,8 42 0 0,0
19.11.2017 10:00:00 4,7 3,5 4,3 4,0 4,8 9,2 24 13 45 24 WSW 997,7 60 0 0,0
19.11.2017 09:00:00 4,3 3,3 4,0 3,9 4,7 9,2 31 17 47 25 WSW 997,6 50 0 0,5
19.11.2017 08:00:00 4,1 3,2 3,7 3,7 4,7 9,2 31 17 45 25 WSW 998,2 4,6 0 3,2
19.11.2017 07:00:00 3,5 2,6 3,2 3,7 4,7 9,2 25 13 48 26 WSW 998,6 5 0 2,1
19.11.2017 06:00:00 3,9 2,6 3,4 3,7 4,7 9,2 27 15 47 25 WSW 999,1 8 0 0,1
19.11.2017 05:00:00 4,2 2,5 4,1 3,7 4,7 9,2 26 14 45 24 WSW 999,8 56 0 0,0
19.11.2017 04:00:00 4,1 2,5 3,9 3,6 4,7 9,2 28 15 49 27 WSW 1000,5 70 0 0,1
19.11.2017 03:00:00 4,1 2,7 3,5 3,6 4,7 9,2 28 15 46 25 WSW 1001,3 52 0 0,1
19.11.2017 02:00:00 4,3 2,6 3,9 3,4 4,7 9,2 26 14 43 23 WSW 1001,8 56 0 0,0
19.11.2017 01:00:00 4,2 2,6 3,6 3,6 4,7 9,2 28 15 40 22 WSW 1002,3 62 0 0,0
19.11.2017 00:00:00 4,0 2,4 3,9 3,5 4,7 9,2 23 12 38 20 WSW 1002,9 58 0 0,0
18.11.2017 23:00:00 4,0 2,5 3,8 3,2 4,7 9,2 20 11 39 21 WSW 1003,5 45 0 0,0
18.11.2017 22:00:00 3,5 2,4 2,9 3,0 4,8 9,2 22 12 40 21 WSW 1003,9 39 0 0,0
18.11.2017 21:00:00 3,3 2,3 2,8 2,9 4,9 9,2 21 12 34 18 WSW 1004,0 39 0 0,1
18.11.2017 20:00:00 3,6 2,3 2,7 2,8 5,0 9,2 23 12 31 17 WSW 1004,3 56 0 0,0
18.11.2017 19:00:00 3,6 2,1 2,6 3,2 5,1 9,2 21 11 32 17 WSW 1004,7 63 0 0,0
18.11.2017 18:00:00 4,3 2,2 3,3 3,5 5,2 9,2 22 12 35 19 W 1004,6 70 0 0,0
18.11.2017 17:00:00 4,0 2,9 3,5 3,8 5,3 9,2 19 10 32 17 W 1004,7 70 0 0,0
18.11.2017 16:00:00 3,4 2,3 2,9 4,2 5,3 9,3 20 11 35 19 WSW 1004,7 70 0 1,6
18.11.2017 15:00:00 4,2 2,9 3,8 4,6 5,3 9,3 23 12 49 27 WSW 1004,7 20 0 1,1
18.11.2017 14:00:00 4,5 3,3 4,1 4,6 5,2 9,3 33 18 49 26 WSW 1005,4 3,2 0 1,2
18.11.2017 13:00:00 4,9 2,5 4,1 4,7 5,1 9,3 26 14 56 30 SW 1005,6 10 0 0,0
18.11.2017 12:00:00 5,5 2,1 5,0 4,5 5,0 9,3 26 14 47 25 SW 1006,8 25 0 0,2
18.11.2017 11:00:00 5,2 1,9 5,1 4,2 5,0 9,3 26 14 48 26 SW 1008,5 43 0 0,0
18.11.2017 10:00:00 4,4 2,0 3,8 3,8 5,0 9,3 23 13 44 24 SW 1009,6 29 0 0,1
18.11.2017 09:00:00 4,3 1,2 4,2 3,5 5,0 9,3 24 13 41 22 SW 1010,9 37 1 0,0
18.11.2017 08:00:00 4,4 1,7 4,0 3,1 5,1 9,3 18 10 32 17 SW 1011,7 39 0 0,0
18.11.2017 07:00:00 4,6 2,1 3,7 3,5 5,1 9,3 20 11 39 21 SW 1012,4 42 0 0,0
18.11.2017 06:00:00 4,7 2,4 4,1 3,5 5,2 9,3 18 10 36 19 SW 1013,4 46 0 0,0
18.11.2017 05:00:00 4,6 2,4 3,9 3,2 5,3 9,3 21 11 38 20 SW 1014,2 45 0 0,0
18.11.2017 04:00:00 4,1 2,4 3,3 3,4 5,4 9,3 16 9 31 17 SW 1015,5 35 0 0,0
18.11.2017 03:00:00 4,5 2,6 3,8 3,8 5,5 9,3 16 8 30 16 SW 1016,6 42 0 0,0
18.11.2017 02:00:00 4,9 2,6 4,3 4,1 5,5 9,3 18 10 28 15 SW 1017,5 40 0 0,0
18.11.2017 01:00:00 5,3 2,8 4,9 4,2 5,5 9,3 17 9 31 17 SW 1018,1 41 0 0,0
18.11.2017 00:00:00 5,4 2,9 5,0 4,2 5,6 9,3 19 10 29 16 WSW 1019,0 47 0 0,0
17.11.2017 23:00:00 5,0 2,7 4,3 4,1 5,7 9,3 19 10 29 15 WSW 1019,6 49 0 0,0
17.11.2017 22:00:00 5,4 2,9 4,9 4,2 5,7 9,3 14 8 25 14 SW 1020,3 48 0 0,0
17.11.2017 21:00:00 5,8 3,1 5,3 4,2 5,8 9,3 19 10 28 15 WSW 1020,8 48 0 0,0
17.11.2017 20:00:00 5,1 3,0 4,2 3,9 6,0 9,3 11 6 22 12 SW 1021,2 43 0 0,0
17.11.2017 19:00:00 5,1 2,7 3,7 4,0 6,1 9,3 14 7 23 12 WSW 1021,4 48 0 0,0
17.11.2017 18:00:00 5,8 2,8 4,5 4,3 6,3 9,3 16 9 24 13 WSW 1021,7 34 0 0,0
17.11.2017 17:00:00 6,1 3,2 4,7 4,9 6,4 9,3 15 8 29 15 WSW 1022,0 54 0 0,0
17.11.2017 16:00:00 6,8 3,6 5,3 5,7 6,4 9,3 16 9 26 14 WSW 1022,1 53 44 0,0
17.11.2017 15:00:00 7,7 3,5 6,3 6,7 6,3 9,3 19 10 33 18 W 1022,3 33 60 0,0
17.11.2017 14:00:00 8,2 4,1 8,3 6,8 6,1 9,3 20 11 35 19 W 1022,4 21 56 0,0
17.11.2017 13:00:00 8,5 4,5 8,5 6,6 5,9 9,3 21 12 34 19 W 1022,6 23 54 0,0
17.11.2017 12:00:00 8,4 3,8 9,1 6,0 5,8 9,3 21 11 37 20 W 1022,7 13 60 0,0

tt = Température de l'air
td = dewpoint
tt 5cm = Température de l'air 5cm
tt -5cm = Température de l'air -5cm
tt -20cm = Température de l'air -20cm
tt -100cm = Température de l'air -100cm
ff = Vitesse du vent
fx = gusts
dd = Direction du vent
ppp = reduced air pressure
vv = visibility
sd = Ensoleillement
rr = Quantités de précipitations

stations d'obs. à proximité